TimeEDT,TemperatureF,Dew PointF,Humidity,Sea Level PressureIn,VisibilityMPH,Wind Direction,Wind SpeedMPH,Gust SpeedMPH,PrecipitationIn,Events,Conditions,WindDirDegrees,DateUTC
12:52 AM,70.0,64.9,84,30.05,6.0,West,4.6,-,N/A,,Haze,260,2013-08-28 04:52:00
1:52 AM,70.0,64.9,84,30.02,6.0,WSW,3.5,-,N/A,,Haze,250,2013-08-28 05:52:00
2:52 AM,70.0,64.9,84,30.01,7.0,West,5.8,-,N/A,,Partly Cloudy,270,2013-08-28 06:52:00
3:52 AM,70.0,64.9,84,29.99,6.0,West,6.9,-,N/A,,Haze,270,2013-08-28 07:52:00
3:59 AM,69.8,64.4,83,30.11,6.0,West,8.1,-,N/A,,Haze,270,2013-08-28 07:59:00
4:15 AM,71.6,64.4,78,30.11,6.0,West,8.1,-,N/A,,Haze,270,2013-08-28 08:15:00
4:52 AM,71.1,66.0,84,30.00,6.0,West,8.1,-,N/A,,Haze,270,2013-08-28 08:52:00
5:52 AM,71.1,66.0,84,29.99,5.0,West,6.9,-,N/A,,Haze,260,2013-08-28 09:52:00
6:52 AM,72.0,66.9,84,30.01,4.0,West,8.1,-,N/A,,Haze,270,2013-08-28 10:52:00
7:50 AM,71.6,66.2,83,30.12,2.5,West,6.9,-,N/A,,Haze,280,2013-08-28 11:50:00
7:52 AM,72.0,66.9,84,30.01,2.5,West,5.8,-,N/A,,Haze,280,2013-08-28 11:52:00
8:48 AM,73.4,68.0,83,30.14,3.0,WNW,8.1,-,0.00,,Haze,300,2013-08-28 12:48:00
8:52 AM,73.0,68.0,84,30.03,3.0,NW,6.9,-,0.00,,Haze,310,2013-08-28 12:52:00
9:52 AM,73.0,68.0,84,30.04,4.0,WNW,8.1,-,N/A,,Haze,300,2013-08-28 13:52:00
10:20 AM,73.4,66.2,78,30.15,5.0,West,6.9,-,N/A,,Haze,280,2013-08-28 14:20:00
10:41 AM,73.4,66.2,78,30.15,6.0,West,6.9,-,N/A,,Haze,270,2013-08-28 14:41:00
10:52 AM,75.0,66.9,76,30.04,6.0,West,6.9,-,N/A,,Haze,280,2013-08-28 14:52:00
11:01 AM,75.2,66.2,73,30.14,7.0,West,8.1,-,N/A,,Mostly Cloudy,270,2013-08-28 15:01:00
11:26 AM,75.2,66.2,73,30.14,9.0,West,10.4,-,N/A,,Mostly Cloudy,280,2013-08-28 15:26:00
11:52 AM,77.0,66.0,69,30.01,9.0,West,5.8,-,N/A,,Mostly Cloudy,270,2013-08-28 15:52:00
12:41 PM,78.8,64.4,61,30.12,10.0,West,9.2,-,N/A,,Mostly Cloudy,260,2013-08-28 16:41:00
12:52 PM,78.1,66.0,66,29.99,10.0,West,10.4,-,N/A,,Partly Cloudy,260,2013-08-28 16:52:00
1:52 PM,79.0,64.9,62,29.98,10.0,West,10.4,-,N/A,,Mostly Cloudy,280,2013-08-28 17:52:00
2:09 PM,80.6,66.2,61,30.11,10.0,Variable,5.8,-,N/A,,Mostly Cloudy,0,2013-08-28 18:09:00
2:52 PM,81.0,66.9,62,29.97,10.0,West,9.2,-,N/A,,Scattered Clouds,280,2013-08-28 18:52:00
3:52 PM,82.0,64.9,56,29.95,10.0,West,11.5,21.9,N/A,,Mostly Cloudy,280,2013-08-28 19:52:00
4:24 PM,82.4,64.4,54,30.06,10.0,WNW,13.8,23.0,N/A,,Scattered Clouds,290,2013-08-28 20:24:00
4:52 PM,81.0,64.9,58,29.94,10.0,West,12.7,18.4,N/A,,Partly Cloudy,280,2013-08-28 20:52:00
5:52 PM,82.0,64.9,56,29.92,10.0,West,11.5,21.9,N/A,,Partly Cloudy,280,2013-08-28 21:52:00
6:52 PM,79.0,66.0,64,29.93,10.0,West,9.2,-,N/A,,Mostly Cloudy,270,2013-08-28 22:52:00
7:52 PM,77.0,64.9,66,29.92,10.0,West,9.2,-,N/A,,Scattered Clouds,270,2013-08-28 23:52:00
8:52 PM,75.9,64.9,69,29.93,10.0,West,6.9,-,N/A,,Clear,270,2013-08-29 00:52:00
9:52 PM,75.9,64.9,69,29.93,10.0,West,10.4,-,N/A,,Mostly Cloudy,270,2013-08-29 01:52:00
10:52 PM,75.9,66.0,71,29.95,10.0,West,13.8,-,N/A,,Overcast,260,2013-08-29 02:52:00
11:29 PM,75.2,66.2,73,30.07,10.0,West,8.1,-,0.00,,Overcast,270,2013-08-29 03:29:00
11:52 PM,75.0,66.9,76,29.94,10.0,WNW,8.1,-,0.00,Rain,Light Rain,300,2013-08-29 03:52:00